Weather History for Mayfld Grav Cnty AP, Mayfield, KY

Change the Weather History Date:

Wednesday, January 8, 2014

  Actual Average (KPAH) Record (KPAH)
Temperature  
Mean Temperature 29 °F 34 °F  
Max Temperature 35 °F 43 °F 67 °F (2008)
Min Temperature 23 °F 26 °F -3 °F (1970)
Degree Days  
Heating Degree Days 36 31  
Month to date heating degree days 245  
Since 1 July heating degree days 1876  
Cooling Degree Days 0 0  
Month to date cooling degree days 0  
Year to date cooling degree days 0  
Moisture  
Dew Point 18 °F    
Average Humidity 62    
Maximum Humidity 87    
Minimum Humidity 48    
Precipitation  
Precipitation 0.00 in 0.12 in 1.53 in (2008)
Month to date precipitation 0.97  
Year to date precipitation 0.97  
Snow  
Snow 0.00 in 0.10 in 3.30 in (1997)
Month to date snowfall 0.7  
Since 1 July snowfall 3.0  
Snow Depth -    
Sea Level Pressure  
Sea Level Pressure 30.42 in    
Wind  
Wind Speed 9 mph (SSW)    
Max Wind Speed 14 mph    
Max Gust Speed 18 mph    
Visibility 10 miles    
Events Snow    
T = Trace of Precipitation, MM = Missing Value Source: NWS Daily Summary

Daily Weather History Graph

Daily Weather History Graph

Search for Another Location

Airport:

Trip Planner

Search our weather history database for the weather conditions in past years. The results will help you decide how hot, cold, wet, or windy it might be!

Date:

Astronomy

Jan. 08, 2014 Rise Set
Actual Time 7:07 AM CST 4:55 PM CST
Civil Twilight 6:38 AM CST 5:23 PM CST
Nautical Twilight 6:06 AM CST 5:55 PM CST
Astronomical Twilight 5:35 AM CST 6:27 PM CST
Moon 11:42 AM CST (1/8) 12:18 AM CST (1/8)
Length of Visible Light 10h 44m
Length of Day
9h 47m
First Quarter, 56% of the Moon is Illuminated
Jan 8
First Quarter
Jan 15
Full
Jan 23
Last Quarter
Jan 30
New
Feb 6
First Quarter

Hourly Weather History & Observations

Time (CST) Temp. Windchill Dew Point Humidity Pressure Visibility Wind Dir Wind Speed Gust Speed Precip Events Conditions
12:15 AM 23.0 °F 11.1 °F 10.4 °F 59% 30.39 in 10.0 mi SSW 12.7 mph - N/A   Clear
12:35 AM 23.0 °F 11.7 °F 10.4 °F 59% 30.39 in 10.0 mi SSW 11.5 mph 18.4 mph N/A   Clear
12:55 AM 23.0 °F 11.7 °F 10.4 °F 59% 30.39 in 10.0 mi SSW 11.5 mph 17.3 mph N/A   Clear
1:35 AM 23.0 °F 10.6 °F 10.4 °F 59% 30.40 in 10.0 mi SSW 13.8 mph - N/A   Clear
1:55 AM 23.0 °F 11.7 °F 10.4 °F 59% 30.41 in 10.0 mi SSW 11.5 mph 16.1 mph N/A   Clear
2:15 AM 23.0 °F 11.7 °F 10.4 °F 59% 30.41 in 10.0 mi SSW 11.5 mph - N/A   Clear
2:35 AM 23.0 °F 12.4 °F 10.4 °F 59% 30.42 in 10.0 mi SSW 10.4 mph - N/A   Clear
2:55 AM 23.0 °F 11.7 °F 10.4 °F 59% 30.42 in 10.0 mi SSW 11.5 mph - N/A   Clear
3:15 AM 23.0 °F 11.1 °F 10.4 °F 59% 30.42 in 10.0 mi SSW 12.7 mph - N/A   Clear
3:35 AM 23.0 °F 10.6 °F 10.4 °F 59% 30.42 in 10.0 mi SW 13.8 mph 17.3 mph N/A   Clear
3:55 AM 23.0 °F 12.4 °F 10.4 °F 59% 30.42 in 10.0 mi SSW 10.4 mph - N/A   Clear
4:15 AM 23.0 °F 11.1 °F 10.4 °F 59% 30.41 in 10.0 mi SW 12.7 mph 16.1 mph N/A   Clear
4:35 AM 23.0 °F 11.7 °F 10.4 °F 59% 30.41 in 10.0 mi SW 11.5 mph - N/A   Clear
4:55 AM 23.0 °F 12.4 °F 10.4 °F 59% 30.41 in 10.0 mi SW 10.4 mph - N/A   Clear
5:15 AM 23.0 °F 11.7 °F 10.4 °F 59% 30.41 in 10.0 mi SSW 11.5 mph - N/A   Clear
5:35 AM 23.0 °F 11.7 °F 10.4 °F 59% 30.41 in 10.0 mi SSW 11.5 mph - N/A   Clear
5:55 AM 23.0 °F 11.7 °F 10.4 °F 59% 30.41 in 10.0 mi SW 11.5 mph - N/A   Clear
6:15 AM 23.0 °F 13.1 °F 10.4 °F 59% 30.42 in 10.0 mi SSW 9.2 mph - N/A   Clear
6:35 AM 23.0 °F 12.4 °F 12.2 °F 63% 30.42 in 10.0 mi SSW 10.4 mph - N/A   Clear
6:55 AM 23.0 °F 13.1 °F 12.2 °F 63% 30.43 in 10.0 mi SSW 9.2 mph - N/A   Clear
7:15 AM 23.0 °F 13.1 °F 12.2 °F 63% 30.43 in 10.0 mi SSW 9.2 mph - N/A   Clear
7:35 AM 23.0 °F 13.9 °F 12.2 °F 63% 30.44 in 10.0 mi SSW 8.1 mph - N/A   Clear
7:55 AM 23.0 °F 14.7 °F 12.2 °F 63% 30.44 in 10.0 mi SSW 6.9 mph - N/A   Clear
8:15 AM 24.8 °F 17.9 °F 12.2 °F 59% 30.44 in 10.0 mi SSW 5.8 mph - N/A   Clear
8:35 AM 24.8 °F 16.1 °F 12.2 °F 59% 30.45 in 10.0 mi SSW 8.1 mph - N/A   Clear
8:55 AM 26.6 °F 17.5 °F 12.2 °F 55% 30.47 in 10.0 mi SSW 9.2 mph - N/A   Clear
9:15 AM 26.6 °F 18.2 °F 14.0 °F 59% 30.47 in 10.0 mi SSW 8.1 mph - N/A   Clear
9:35 AM 28.4 °F 19.1 °F 14.0 °F 55% 30.48 in 10.0 mi SSW 10.4 mph - N/A   Clear
9:55 AM 28.4 °F 21.2 °F 14.0 °F 55% 30.48 in 10.0 mi SSW 6.9 mph - N/A   Clear
10:15 AM 30.2 °F 21.9 °F 14.0 °F 51% 30.48 in 10.0 mi SSW 9.2 mph - N/A   Clear
10:35 AM 30.2 °F 22.6 °F 14.0 °F 51% 30.48 in 10.0 mi SSW 8.1 mph - N/A   Clear
10:55 AM 32.0 °F 25.6 °F 14.0 °F 48% 30.46 in 10.0 mi SSW 6.9 mph - N/A   Clear
11:15 AM 32.0 °F 26.4 °F 15.8 °F 51% 30.45 in 10.0 mi SSW 5.8 mph - N/A   Clear
11:35 AM 32.0 °F 26.4 °F 17.6 °F 55% 30.44 in 10.0 mi South 5.8 mph - N/A   Clear
11:55 AM 33.8 °F 28.6 °F 17.6 °F 52% 30.42 in 10.0 mi South 5.8 mph - N/A   Clear
12:15 PM 35.6 °F 30.7 °F 17.6 °F 48% 30.40 in 10.0 mi SSE 5.8 mph - N/A   Clear
12:35 PM 35.6 °F 29.9 °F 19.4 °F 52% 30.40 in 10.0 mi South 6.9 mph - N/A   Clear
12:55 PM 35.6 °F 29.2 °F 17.6 °F 48% 30.39 in 10.0 mi SSW 8.1 mph - N/A   Clear
1:15 PM 35.6 °F 29.2 °F 17.6 °F 48% 30.39 in 10.0 mi SSW 8.1 mph - N/A   Clear
1:35 PM 35.6 °F 29.9 °F 17.6 °F 48% 30.39 in 10.0 mi SSW 6.9 mph - N/A   Clear
1:55 PM 35.6 °F 29.2 °F 17.6 °F 48% 30.40 in 10.0 mi SW 8.1 mph - N/A   Clear
2:15 PM 35.6 °F 29.2 °F 17.6 °F 48% 30.39 in 10.0 mi SSW 8.1 mph - N/A   Clear
2:35 PM 35.6 °F 30.7 °F 17.6 °F 48% 30.38 in 10.0 mi South 5.8 mph - N/A   Clear
2:55 PM 35.6 °F 31.7 °F 17.6 °F 48% 30.39 in 10.0 mi South 4.6 mph - N/A   Scattered Clouds
3:15 PM 35.6 °F 32.8 °F 17.6 °F 48% 30.39 in 10.0 mi SSW 3.5 mph - N/A   Mostly Cloudy
3:35 PM 35.6 °F - 19.4 °F 52% 30.40 in 10.0 mi Calm Calm - N/A   Mostly Cloudy
3:55 PM 35.6 °F - 17.6 °F 48% 30.39 in 10.0 mi Calm Calm - N/A   Overcast
4:15 PM 35.6 °F - 19.4 °F 52% 30.40 in 10.0 mi Calm Calm - N/A   Overcast
4:35 PM 35.6 °F - 19.4 °F 52% 30.40 in 10.0 mi Calm Calm - N/A   Overcast
4:55 PM 35.6 °F - 19.4 °F 52% 30.40 in 10.0 mi Calm Calm - N/A   Overcast
5:15 PM 35.6 °F - 19.4 °F 52% 30.40 in 10.0 mi Calm Calm - N/A   Overcast
5:35 PM 33.8 °F - 19.4 °F 56% 30.41 in 10.0 mi Calm Calm - N/A   Overcast
5:55 PM 33.8 °F - 21.2 °F 60% 30.42 in 10.0 mi Calm Calm - N/A   Overcast
6:15 PM 33.8 °F 30.8 °F 23.0 °F 65% 30.42 in 5.0 mi WSW 3.5 mph - N/A Snow Light Snow
6:35 PM 32.0 °F - 26.6 °F 80% 30.42 in 10.0 mi Calm Calm - N/A Snow Light Snow
6:55 PM 32.0 °F 28.7 °F 26.6 °F 80% 30.42 in 10.0 mi North 3.5 mph - N/A Snow Light Snow
7:15 PM 32.0 °F 28.7 °F 26.6 °F 80% 30.43 in 10.0 mi NNW 3.5 mph - N/A   Overcast
7:35 PM 32.0 °F 28.7 °F 28.4 °F 87% 30.42 in 10.0 mi ENE 3.5 mph - N/A   Overcast
7:55 PM 32.0 °F 28.7 °F 26.6 °F 80% 30.44 in 10.0 mi NNE 3.5 mph - N/A   Overcast
8:15 PM 32.0 °F 26.4 °F 26.6 °F 80% 30.44 in 10.0 mi NNE 5.8 mph - N/A   Overcast
8:35 PM 32.0 °F 27.5 °F 26.6 °F 80% 30.43 in 10.0 mi NNE 4.6 mph - N/A   Overcast
8:55 PM 32.0 °F 26.4 °F 26.6 °F 80% 30.44 in 10.0 mi NNE 5.8 mph - N/A   Overcast
9:15 PM 32.0 °F - 28.4 °F 87% 30.44 in 10.0 mi Calm Calm - N/A   Overcast
9:35 PM 32.0 °F - 28.4 °F 87% 30.44 in 10.0 mi Calm Calm - N/A   Overcast
9:55 PM 32.0 °F 28.7 °F 28.4 °F 87% 30.44 in 10.0 mi ENE 3.5 mph - N/A   Overcast
10:15 PM 32.0 °F 26.4 °F 28.4 °F 87% 30.44 in 10.0 mi ENE 5.8 mph - N/A   Overcast
10:35 PM 32.0 °F - 28.4 °F 87% 30.45 in 10.0 mi Calm Calm - N/A   Overcast
10:55 PM 32.0 °F 28.7 °F 28.4 °F 87% 30.44 in 10.0 mi East 3.5 mph - N/A   Overcast
11:15 PM 32.0 °F 28.7 °F 28.4 °F 87% 30.44 in 10.0 mi ENE 3.5 mph - N/A   Overcast
11:35 PM 32.0 °F 28.7 °F 28.4 °F 87% 30.44 in 10.0 mi ENE 3.5 mph - N/A   Overcast
11:55 PM 32.0 °F 27.5 °F 28.4 °F 87% 30.44 in 10.0 mi East 4.6 mph - N/A   Overcast